FW3914 Weather Reports


Display with metric or nautical units.
time (UTC)temp
F
wind
direction
speed
MPH
gust
MPH
rain 1hr
in
rain 24hr
in
rain mn
in
humidity
%
barometer
mb
20260906090929 79 215 2.0 3.0 0.00 0.00 0.00 89 1012.6
20260906090424 79 185 0.0 3.0 0.00 0.00 0.00 89 1012.9
20260906085918 79 297 0.0 2.0 0.00 0.00 0.00 88 1012.8
20260906085412 79 241 0.0 3.0 0.00 0.00 0.00 88 1012.7
20260906084911 79 231 1.0 3.0 0.00 0.00 0.00 88 1012.7
20260906084406 79 224 2.0 3.0 0.00 0.00 0.00 88 1012.6
20260906083905 79 201 2.0 4.0 0.00 0.00 0.00 88 1012.3
20260906083401 79 265 2.0 3.0 0.00 0.00 0.00 88 1012.6
20260906082900 79 165 2.0 4.0 0.00 0.00 0.00 88 1012.5
20260906082355 79 190 1.0 3.0 0.00 0.00 0.00 87 1012.6
20260906081852 79 184 0.0 7.0 0.00 0.00 0.00 87 1012.7
20260906081347 79 155 0.0 3.0 0.00 0.00 0.00 87 1012.8
20260906080843 80 198 2.0 3.0 0.00 0.00 0.00 87 1012.7
20260906080339 80 206 2.0 3.0 0.00 0.00 0.00 87 1013.2
20260906075838 80 198 1.0 6.0 0.00 0.00 0.00 86 1012.7
20260906075333 80 272 1.0 3.0 0.00 0.00 0.00 86 1013.1
20260906074829 80 205 2.0 3.0 0.00 0.00 0.00 86 1012.9
20260906074328 80 260 2.0 4.0 0.00 0.00 0.00 85 1012.9
20260906073827 80 81 0.0 3.0 0.00 0.00 0.00 85 1013.0
20260906073322 80 172 2.0 4.0 0.00 0.00 0.00 85 1012.9
20260906072818 80 183 2.0 3.0 0.00 0.00 0.00 84 1012.8
20260906072314 80 144 2.0 3.0 0.00 0.00 0.00 84 1012.9
20260906071810 81 181 0.0 3.0 0.00 0.00 0.00 83 1013.0
20260906071304 81 177 2.0 3.0 0.00 0.00 0.00 83 1012.7
20260906070801 81 177 1.0 3.0 0.00 0.00 0.00 83 1012.9
20260906070256 81 243 2.0 2.0 0.00 0.00 0.00 83 1012.8
20260906065756 81 237 0.0 2.0 0.00 0.00 0.00 83 1012.9
20260906065251 81 259 1.0 3.0 0.00 0.00 0.00 83 1013.1
20260906064747 81 215 3.0 5.0 0.00 0.00 0.00 83 1013.0
20260906064243 81 209 3.0 5.0 0.00 0.00 0.00 82 1012.9
20260906063737 81 247 1.0 3.0 0.00 0.00 0.00 82 1013.0
20260906063233 81 157 1.0 4.0 0.00 0.00 0.00 82 1013.0
20260906062728 81 159 3.0 4.0 0.00 0.00 0.00 81 1012.9
20260906062227 81 226 0.0 4.0 0.00 0.00 0.00 81 1013.0
20260906061723 81 231 1.0 5.0 0.00 0.00 0.00 81 1013.0
20260906061219 82 230 2.0 4.0 0.00 0.00 0.00 80 1013.1
20260906060714 82 180 3.0 5.0 0.00 0.00 0.00 79 1013.2
20260906060212 82 300 1.0 5.0 0.00 0.00 0.00 79 1013.1
20260906055707 82 187 2.0 5.0 0.00 0.00 0.00 78 1013.4
20260906055203 82 123 0.0 8.0 0.00 0.00 0.00 77 1013.2
20260906054657 82 206 0.0 4.0 0.00 0.00 0.00 77 1013.2
20260906054152 82 344 0.0 3.0 0.00 0.00 0.00 77 1013.5
20260906053649 83 191 0.0 2.0 0.00 0.00 0.00 76 1013.1
20260906053144 83 249 1.0 3.0 0.00 0.00 0.00 76 1013.1
20260906052639 83 225 2.0 3.0 0.00 0.00 0.00 76 1013.1
20260906052136 83 228 2.0 5.0 0.00 0.00 0.00 76 1013.1
20260906051632 83 177 2.0 5.0 0.00 0.00 0.00 76 1013.0
20260906051131 83 218 0.0 6.0 0.00 0.00 0.00 75 1013.1
20260906050627 83 171 3.0 4.0 0.00 0.00 0.00 75 1013.3
20260906050122 83 191 2.0 3.0 0.00 0.00 0.00 74 1012.8
20260906045620 84 203 2.0 4.0 0.00 0.00 0.00 74 1012.8
20260906045116 84 212 1.0 3.0 0.00 0.00 0.00 74 1012.7
20260906044612 84 221 1.0 4.0 0.00 0.00 0.00 74 1012.9
20260906044107 84 222 3.0 4.0 0.00 0.00 0.00 74 1012.9
20260906043603 84 246 2.0 4.0 0.00 0.00 0.00 74 1013.2
20260906043058 84 222 2.0 7.0 0.00 0.00 0.00 74 1012.7
20260906042557 84 153 2.0 4.0 0.00 0.00 0.00 74 1013.2
20260906042052 84 238 2.0 3.0 0.00 0.00 0.00 75 1013.0
20260906041548 84 258 1.0 5.0 0.00 0.00 0.00 74 1013.1
20260906041043 84 250 1.0 4.0 0.00 0.00 0.00 74 1013.2
20260906040538 84 151 2.0 4.0 0.00 0.00 0.00 74 1013.3
20260906040034 84 269 0.0 4.0 0.00 0.00 0.00 74 1013.0
20260906035529 85 203 2.0 3.0 0.00 0.00 0.00 74 1013.2
20260906035025 85 187 2.0 3.0 0.00 0.00 0.00 74 1013.4
20260906034524 85 200 3.0 5.0 0.00 0.00 0.00 73 1012.9
20260906034019 85 149 1.0 5.0 0.00 0.00 0.00 73 1013.2
20260906033514 85 214 2.0 7.0 0.00 0.00 0.00 73 1012.8
20260906033010 85 180 2.0 3.0 0.00 0.00 0.00 73 1013.0
20260906032506 85 255 2.0 4.0 0.00 0.00 0.00 73 1013.0
20260906032001 85 199 0.0 3.0 0.00 0.00 0.00 73 1013.1
20260906031456 86 263 0.0 6.0 0.00 0.00 0.00 72 1012.9
20260906030951 86 195 4.0 5.0 0.00 0.00 0.00 72 1012.9
20260906030446 86 213 1.0 4.0 0.00 0.00 0.00 71 1013.2
20260906025946 86 199 3.0 5.0 0.00 0.00 0.00 71 1013.0
20260906025440 86 197 4.0 5.0 0.00 0.00 0.00 70 1013.1
20260906024939 86 210 2.0 5.0 0.00 0.00 0.00 70 1013.0
20260906024438 86 227 0.0 3.0 0.00 0.00 0.00 70 1013.0
20260906023933 86 216 3.0 5.0 0.00 0.00 0.00 69 1013.0
20260906023430 86 246 2.0 4.0 0.00 0.00 0.00 69 1012.9
20260906022924 86 180 2.0 3.0 0.00 0.00 0.00 69 1012.7
20260906022419 86 259 3.0 5.0 0.00 0.00 0.00 68 1012.6
20260906021915 86 224 2.0 5.0 0.00 0.00 0.00 68 1012.6
20260906021414 87 218 0.0 7.0 0.00 0.00 0.00 68 1012.5
20260906020909 87 207 2.0 5.0 0.00 0.00 0.00 67 1012.5
20260906020403 87 271 1.0 4.0 0.00 0.00 0.00 66 1012.5
20260906015858 87 252 1.0 5.0 0.00 0.00 0.00 66 1012.3
20260906015357 87 211 2.0 5.0 0.00 0.00 0.00 66 1012.1
20260906014857 87 232 1.0 6.0 0.00 0.00 0.00 65 1012.5
20260906014357 87 245 1.0 4.0 0.00 0.00 0.00 64 1012.3
20260906013853 88 222 2.0 5.0 0.00 0.00 0.00 65 1012.2
20260906013349 88 247 1.0 10.0 0.00 0.00 0.00 63 1012.1
20260906012844 88 222 4.0 6.0 0.00 0.00 0.00 63 1012.0
20260906012339 88 244 3.0 6.0 0.00 0.00 0.00 63 1012.1
20260906011838 88 218 4.0 6.0 0.00 0.00 0.00 62 1011.9
20260906011333 89 262 2.0 9.0 0.00 0.00 0.00 62 1011.8
20260906010829 89 288 2.0 4.0 0.00 0.00 0.00 61 1011.8
20260906010325 89 186 3.0 11.0 0.00 0.00 0.00 61 1011.8
20260906005820 90 312 4.0 11.0 0.00 0.00 0.00 60 1011.7
20260906005319 91 262 4.0 10.0 0.00 0.00 0.00 59 1011.6
20260906004819 91 238 2.0 14.0 0.00 0.00 0.00 57 1011.4
20260906004318 92 301 3.0 7.0 0.00 0.00 0.00 55 1011.2
20260906003814 93 333 3.0 6.0 0.00 0.00 0.00 53 1011.3
20260906003309 94 328 4.0 13.0 0.00 0.00 0.00 53 1011.4
20260906002805 94 257 3.0 8.0 0.00 0.00 0.00 52 1011.5
20260906002306 95 296 3.0 8.0 0.00 0.00 0.00 51 1011.2
20260906001800 96 267 2.0 7.0 0.00 0.00 0.00 50 1011.2
20260906001254 97 279 3.0 6.0 0.00 0.00 0.00 47 1011.3
20260906000749 98 289 2.0 6.0 0.00 0.00 0.00 44 1011.3
20260906000244 98 254 3.0 5.0 0.00 0.00 0.00 44 1011.1
20260905235739 100 239 0.0 5.0 0.00 0.00 0.00 42 1011.1
20260905235238 100 278 2.0 4.0 0.00 0.00 0.00 42 1011.2
20260905234734 100 308 2.0 5.0 0.00 0.00 0.00 41 1011.0
20260905234230 101 171 3.0 6.0 0.00 0.00 0.00 41 1011.0
20260905233725 101 180 3.0 5.0 0.00 0.00 0.00 41 1010.8
20260905233224 100 25 2.0 5.0 0.00 0.00 0.00 42 1010.6
20260905232719 102 233 2.0 4.0 0.00 0.00 0.00 40 1010.7
20260905232215 102 293 2.0 7.0 0.00 0.00 0.00 40 1010.9
20260905231710 103 332 0.0 4.0 0.00 0.00 0.00 39 1011.0
20260905231206 102 206 2.0 6.0 0.00 0.00 0.00 40 1011.0
20260905230702 102 279 0.0 5.0 0.00 0.00 0.00 40 1011.2
20260905230159 104 227 3.0 6.0 0.00 0.00 0.00 39 1011.2
20260905225659 101 268 1.0 6.0 0.00 0.00 0.00 41 1011.1
20260905225154 103 250 8.0 9.0 0.00 0.00 0.00 41 1010.7
20260905224654 103 247 3.0 4.0 0.00 0.00 0.00 40 1011.0
20260905224148 103 247 3.0 6.0 0.00 0.00 0.00 40 1010.8
20260905223645 103 244 4.0 7.0 0.00 0.00 0.00 40 1010.9
20260905223141 105 230 3.0 7.0 0.00 0.00 0.00 38 1011.0
20260905222637 104 245 3.0 4.0 0.00 0.00 0.00 39 1010.9
20260905222131 105 265 2.0 5.0 0.00 0.00 0.00 38 1010.8
20260905221627 104 204 3.0 5.0 0.00 0.00 0.00 38 1010.8
20260905221124 104 341 2.0 5.0 0.00 0.00 0.00 38 1011.0
20260905220619 102 239 3.0 6.0 0.00 0.00 0.00 40 1011.1
20260905220115 102 334 2.0 5.0 0.00 0.00 0.00 40 1011.1
20260905215614 103 305 3.0 4.0 0.00 0.00 0.00 39 1011.4
20260905215110 101 0 3.0 5.0 0.00 0.00 0.00 40 1011.4
20260905214606 101 225 1.0 4.0 0.00 0.00 0.00 41 1011.2
20260905214106 101 51 2.0 5.0 0.00 0.00 0.00 41 1011.4
20260905213601 103 293 3.0 5.0 0.00 0.00 0.00 40 1011.3
20260905213056 104 300 3.0 5.0 0.00 0.00 0.00 39 1011.3
20260905212551 102 259 4.0 7.0 0.00 0.00 0.00 41 1011.5
20260905212051 102 196 2.0 5.0 0.00 0.00 0.00 40 1011.5
20260905211546 104 212 1.0 4.0 0.00 0.00 0.00 38 1011.3
20260905211042 103 238 3.0 6.0 0.00 0.00 0.00 40 1011.6
20260905210537 104 334 2.0 3.0 0.00 0.00 0.00 38 1011.6
20260905210032 102 220 1.0 6.0 0.00 0.00 0.00 42 1011.7
20260905205531 100 276 4.0 4.0 0.00 0.00 0.00 43 1011.8
20260905205030 101 262 0.0 5.0 0.00 0.00 0.00 41 1011.8
20260905204526 103 345 2.0 5.0 0.00 0.00 0.00 40 1011.8
20260905204021 102 216 3.0 8.0 0.00 0.00 0.00 42 1012.1
20260905203520 102 219 3.0 7.0 0.00 0.00 0.00 41 1012.1
20260905203016 102 201 1.0 7.0 0.00 0.00 0.00 42 1012.1
20260905202511 101 280 2.0 8.0 0.00 0.00 0.00 42 1012.3
20260905202007 101 256 3.0 8.0 0.00 0.00 0.00 42 1012.3
20260905201502 101 259 3.0 7.0 0.00 0.00 0.00 43 1012.3
20260905201001 101 203 3.0 6.0 0.00 0.00 0.00 42 1012.4
20260905200457 99 263 4.0 9.0 0.00 0.00 0.00 43 1012.3
20260905195955 102 218 7.0 8.0 0.00 0.00 0.00 42 1012.2
20260905195451 101 217 4.0 8.0 0.00 0.00 0.00 43 1012.4
20260905194946 101 244 4.0 11.0 0.00 0.00 0.00 44 1012.6
20260905194446 102 183 3.0 4.0 0.00 0.00 0.00 42 1012.7
20260905193940 101 238 2.0 5.0 0.00 0.00 0.00 44 1012.9
20260905193435 98 246 4.0 4.0 0.00 0.00 0.00 47 1012.9
20260905192930 100 238 3.0 6.0 0.00 0.00 0.00 45 1012.8
20260905192425 100 165 5.0 8.0 0.00 0.00 0.00 44 1013.2
20260905191920 99 283 3.0 10.0 0.00 0.00 0.00 46 1013.1
20260905191419 98 188 4.0 4.0 0.00 0.00 0.00 46 1013.4
20260905190914 99 226 1.0 9.0 0.00 0.00 0.00 46 1013.5
20260905190412 99 236 5.0 7.0 0.00 0.00 0.00 47 1013.4
20260905185910 100 262 4.0 5.0 0.00 0.00 0.00 46 1013.5
20260905185406 99 258 1.0 6.0 0.00 0.00 0.00 46 1013.7
20260905184904 98 224 4.0 7.0 0.00 0.00 0.00 47 1013.6
20260905184359 99 218 3.0 6.0 0.00 0.00 0.00 46 1013.7
20260905183857 98 331 3.0 4.0 0.00 0.00 0.00 47 1013.8
20260905183352 98 261 3.0 5.0 0.00 0.00 0.00 46 1013.9
20260905182847 98 245 3.0 6.0 0.00 0.00 0.00 47 1014.0
20260905182342 98 331 3.0 9.0 0.00 0.00 0.00 46 1014.2
20260905181837 100 234 4.0 7.0 0.00 0.00 0.00 45 1014.1
20260905181337 98 250 2.0 6.0 0.00 0.00 0.00 43 1014.1
20260905180836 99 211 3.0 8.0 0.00 0.00 0.00 43 1014.5
20260905180331 98 266 0.0 6.0 0.00 0.00 0.00 46 1014.4
20260905175826 97 228 2.0 7.0 0.00 0.00 0.00 46 1014.4
20260905175326 98 338 1.0 8.0 0.00 0.00 0.00 47 1014.3
20260905174821 98 323 4.0 5.0 0.00 0.00 0.00 48 1014.5
20260905174317 97 218 4.0 8.0 0.00 0.00 0.00 50 1014.6
20260905173812 98 284 4.0 10.0 0.00 0.00 0.00 50 1014.7
20260905173308 96 282 4.0 7.0 0.00 0.00 0.00 51 1014.6
20260905172808 96 63 1.0 6.0 0.00 0.00 0.00 52 1014.5
20260905172306 94 271 4.0 6.0 0.00 0.00 0.00 55 1014.8
20260905171803 92 352 2.0 3.0 0.00 0.00 0.00 56 1014.6
20260905171259 92 305 1.0 5.0 0.00 0.00 0.00 56 1014.8
20260905170755 93 304 4.0 6.0 0.00 0.00 0.00 56 1014.8
20260905170251 96 73 5.0 6.0 0.00 0.00 0.00 52 1015.0
20260905165749 95 240 2.0 5.0 0.00 0.00 0.00 52 1014.9
20260905165246 96 240 7.0 7.0 0.00 0.00 0.00 53 1014.8
20260905164746 96 268 2.0 9.0 0.00 0.00 0.00 54 1015.1
20260905164240 95 222 1.0 4.0 0.00 0.00 0.00 54 1015.0
20260905163736 95 246 4.0 8.0 0.00 0.00 0.00 54 1015.1
20260905163232 96 234 3.0 7.0 0.00 0.00 0.00 53 1015.2
20260905162728 95 286 2.0 3.0 0.00 0.00 0.00 54 1015.1
20260905162227 95 198 0.0 3.0 0.00 0.00 0.00 54 1015.2
20260905161723 95 234 2.0 5.0 0.00 0.00 0.00 54 1015.0
20260905161221 95 193 3.0 5.0 0.00 0.00 0.00 54 1015.1
20260905160719 93 302 2.0 4.0 0.00 0.00 0.00 56 1015.2
20260905160214 93 261 1.0 5.0 0.00 0.00 0.00 57 1015.1
20260905155708 92 233 5.0 7.0 0.00 0.00 0.00 58 1015.0
20260905155207 93 223 3.0 9.0 0.00 0.00 0.00 57 1015.0
20260905154701 94 248 2.0 6.0 0.00 0.00 0.00 57 1015.1
20260905154157 93 255 2.0 6.0 0.00 0.00 0.00 58 1015.1
20260905153654 93 251 3.0 5.0 0.00 0.00 0.00 58 1015.2
20260905153148 93 24 1.0 5.0 0.00 0.00 0.00 58 1015.1
20260905152643 92 277 3.0 5.0 0.00 0.00 0.00 60 1014.9
20260905152138 91 271 3.0 5.0 0.00 0.00 0.00 60 1014.9
20260905151633 91 238 4.0 6.0 0.00 0.00 0.00 62 1014.9
20260905151128 91 205 7.0 7.0 0.00 0.00 0.00 63 1014.8
20260905150624 91 220 2.0 6.0 0.00 0.00 0.00 63 1014.8
20260905150122 92 240 2.0 6.0 0.00 0.00 0.00 63 1015.0
20260905145620 91 240 3.0 3.0 0.00 0.00 0.00 64 1014.7
20260905145119 89 243 2.0 6.0 0.00 0.00 0.00 66 1014.9
20260905144614 90 231 4.0 6.0 0.00 0.00 0.00 65 1014.6
20260905144114 89 265 2.0 6.0 0.00 0.00 0.00 66 1014.9
20260905143608 88 241 2.0 5.0 0.00 0.00 0.00 68 1014.6
20260905143103 89 218 2.0 8.0 0.00 0.00 0.00 66 1014.8
20260905142602 89 193 1.0 5.0 0.00 0.00 0.00 67 1014.8
20260905142056 87 216 3.0 5.0 0.00 0.00 0.00 69 1014.7
20260905141556 88 261 2.0 6.0 0.00 0.00 0.00 68 1014.9
20260905141052 87 225 2.0 5.0 0.00 0.00 0.00 68 1014.8
20260905140548 88 184 1.0 3.0 0.00 0.00 0.00 67 1015.1
20260905140046 88 236 2.0 3.0 0.00 0.00 0.00 67 1014.8
20260905135542 88 213 2.0 3.0 0.00 0.00 0.00 67 1014.9
20260905135042 87 226 2.0 4.0 0.00 0.00 0.00 69 1014.8
20260905134537 86 233 3.0 4.0 0.00 0.00 0.00 71 1014.8
20260905134035 86 242 2.0 3.0 0.00 0.00 0.00 71 1014.7
20260905133531 85 229 1.0 3.0 0.00 0.00 0.00 71 1014.6
20260905133031 85 175 1.0 4.0 0.00 0.00 0.00 72 1014.5
20260905132531 84 196 2.0 4.0 0.00 0.00 0.00 73 1014.6
20260905132025 84 267 2.0 4.0 0.00 0.00 0.00 74 1014.8
20260905131521 83 217 2.0 6.0 0.00 0.00 0.00 74 1014.7
20260905131016 84 194 2.0 4.0 0.00 0.00 0.00 74 1014.7
20260905130515 84 306 1.0 3.0 0.00 0.00 0.00 74 1014.5
20260905130011 84 259 1.0 3.0 0.00 0.00 0.00 73 1014.5
20260905125505 83 241 0.0 2.0 0.00 0.00 0.00 74 1014.4
20260905125001 82 242 0.0 2.0 0.00 0.00 0.00 77 1014.2
20260905124457 80 192 0.0 2.0 0.00 0.00 0.00 79 1014.3
20260905123952 79 221 1.0 2.0 0.00 0.00 0.00 80 1014.0
20260905123448 79 202 0.0 2.0 0.00 0.00 0.00 80 1014.0
20260905122948 79 230 0.0 2.0 0.00 0.00 0.00 81 1014.1
20260905122443 79 207 0.0 3.0 0.00 0.00 0.00 81 1014.0
20260905121938 78 326 0.0 3.0 0.00 0.00 0.00 81 1014.0
20260905121434 78 235 0.0 2.0 0.00 0.00 0.00 81 1014.1
20260905120933 78 222 0.0 3.0 0.00 0.00 0.00 82 1014.1
20260905120427 78 251 1.0 2.0 0.00 0.00 0.00 82 1013.7
20260905115922 78 299 0.0 3.0 0.00 0.00 0.00 82 1014.0
20260905115422 78 263 2.0 2.0 0.00 0.00 0.00 83 1014.0
20260905114917 78 245 0.0 2.0 0.00 0.00 0.00 83 1014.1
20260905114416 78 219 0.0 2.0 0.00 0.00 0.00 83 1014.1
20260905113915 78 297 0.0 2.0 0.00 0.00 0.00 83 1014.1
20260905113411 78 224 0.0 1.0 0.00 0.00 0.00 83 1014.1
20260905112906 78 172 0.0 2.0 0.00 0.00 0.00 83 1014.1
20260905112401 78 321 0.0 0.0 0.00 0.00 0.00 83 1014.0
20260905111856 78 293 0.0 2.0 0.00 0.00 0.00 83 1014.1
20260905111350 78 269 0.0 1.0 0.00 0.00 0.00 83 1014.0
20260905110850 78 243 1.0 2.0 0.00 0.00 0.00 83 1014.0
20260905110344 78 246 1.0 2.0 0.00 0.00 0.00 83 1014.0
20260905105839 78 259 1.0 2.0 0.00 0.00 0.00 82 1014.0
20260905105339 79 252 1.0 2.0 0.00 0.00 0.00 81 1014.1
20260905104833 79 249 0.0 1.0 0.00 0.00 0.00 80 1013.8
20260905104330 79 315 0.0 0.0 0.00 0.00 0.00 80 1013.9
20260905103829 79 217 0.0 0.0 0.00 0.00 0.00 80 1014.0
20260905103324 79 351 0.0 1.0 0.00 0.00 0.00 80 1013.9
20260905102820 79 258 0.0 2.0 0.00 0.00 0.00 80 1013.9
20260905102317 79 309 0.0 1.0 0.00 0.00 0.00 79 1014.0
20260905101817 79 233 0.0 2.0 0.00 0.00 0.00 79 1014.0
20260905101315 79 230 0.0 2.0 0.00 0.00 0.00 79 1013.8
20260905100809 80 252 0.0 2.0 0.00 0.00 0.00 79 1014.0
20260905100306 80 245 0.0 2.0 0.00 0.00 0.00 79 1013.9
20260905095804 80 220 1.0 2.0 0.00 0.00 0.00 78 1013.8
20260905095259 80 215 2.0 2.0 0.00 0.00 0.00 78 1013.8
20260905094754 80 258 0.0 3.0 0.00 0.00 0.00 78 1013.7
20260905094249 80 233 1.0 3.0 0.00 0.00 0.00 77 1013.8
20260905093748 81 218 2.0 3.0 0.00 0.00 0.00 77 1013.7
20260905093244 81 229 1.0 3.0 0.00 0.00 0.00 77 1013.7
20260905092740 81 194 2.0 3.0 0.00 0.00 0.00 77 1013.8
20260905092235 81 243 0.0 2.0 0.00 0.00 0.00 77 1013.5
20260905091735 81 269 0.0 3.0 0.00 0.00 0.00 77 1013.7
20260905091230 81 224 0.0 3.0 0.00 0.00 0.00 77 1013.5